When you browse on this site, cookies collect data to enhance your experience and personalize the content and advertising you see.
Visit our Privacy Policy to learn more. By continuing to use the site, you agree to this use of cookies and data.
EN

Hourly Weather Velikaya Novoselka

Today, 5 July, Sunday

Time Temperature Precipitation Wind Pressure Humidity
00:00 +25°C° 0 mm 2 mps 748 mmHg 53%
01:00 +24°C° 0 mm 2 mps 747 mmHg 53%
02:00 +24°C° 0 mm 2 mps 747 mmHg 53%
03:00 +23°C° 0 mm 2 mps 747 mmHg 56%
04:00 +23°C° 0 mm 2 mps 747 mmHg 59%
05:00 +23°C° 0 mm 2 mps 747 mmHg 62%
06:00 +25°C° 0 mm 2 mps 747 mmHg 58%
07:00 +26°C° 0 mm 2 mps 747 mmHg 55%
08:00 +28°C° 0 mm 3 mps 747 mmHg 51%
09:00 +30°C° 0 mm 3 mps 747 mmHg 49%
10:00 +31°C° 0 mm 3 mps 747 mmHg 46%
11:00 +34°C° 0 mm 3 mps 747 mmHg 43%
12:00 +35°C° 0 mm 3 mps 747 mmHg 41%
13:00 +35°C° 0 mm 3 mps 747 mmHg 39%
14:00 +36°C° 0 mm 2 mps 747 mmHg 37%
15:00 +36°C° 0 mm 2 mps 747 mmHg 39%
16:00 +35°C° 0 mm 2 mps 747 mmHg 41%
17:00 +35°C° 0 mm 3 mps 746 mmHg 43%
18:00 +32°C° 0 mm 2 mps 746 mmHg 46%
19:00 +30°C° 0 mm 2 mps 747 mmHg 49%
20:00 +28°C° 0 mm 2 mps 747 mmHg 52%
21:00 +27°C° 0 mm 2 mps 747 mmHg 53%
22:00 +26°C° 0 mm 1 mps 747 mmHg 54%
23:00 +25°C° 0 mm 1 mps 747 mmHg 55%

Tomorrow, 6 July, Monday

Time Temperature Precipitation Wind Pressure Humidity
00:00 +25°C° 0 mm 1 mps 747 mmHg 56%
01:00 +24°C° 0 mm 1 mps 747 mmHg 56%
02:00 +24°C° 0 mm 1 mps 747 mmHg 56%
03:00 +24°C° 0 mm 1 mps 747 mmHg 58%
04:00 +24°C° 0 mm 1 mps 747 mmHg 59%
05:00 +24°C° 0 mm 2 mps 746 mmHg 60%
06:00 +26°C° 0 mm 2 mps 747 mmHg 55%
07:00 +28°C° 0 mm 3 mps 747 mmHg 50%
08:00 +30°C° 0 mm 3 mps 747 mmHg 45%
09:00 +33°C° 0 mm 4 mps 747 mmHg 41%
10:00 +34°C° 0 mm 4 mps 747 mmHg 37%
11:00 +35°C° 0 mm 4 mps 746 mmHg 33%
12:00 +36°C° 0 mm 4 mps 746 mmHg 32%
13:00 +36°C° 0 mm 4 mps 746 mmHg 31%
14:00 +37°C° 0 mm 4 mps 746 mmHg 30%
15:00 +37°C° 0 mm 3 mps 745 mmHg 32%
16:00 +36°C° 0 mm 3 mps 745 mmHg 34%
17:00 +36°C° 0 mm 2 mps 745 mmHg 37%
18:00 +32°C° 0 mm 2 mps 745 mmHg 38%
19:00 +30°C° 0 mm 3 mps 745 mmHg 39%
20:00 +27°C° 0 mm 3 mps 745 mmHg 40%
21:00 +27°C° 0 mm 3 mps 745 mmHg 39%
22:00 +26°C° 0 mm 3 mps 744 mmHg 39%
23:00 +25°C° 0 mm 2 mps 744 mmHg 38%

Day after tomorrow, 7 July, Tuesday

Time Temperature Precipitation Wind Pressure Humidity
00:00 +25°C° 0 mm 2 mps 744 mmHg 39%
01:00 +24°C° 0 mm 2 mps 744 mmHg 40%
02:00 +24°C° 0 mm 2 mps 743 mmHg 41%
03:00 +24°C° 0 mm 2 mps 743 mmHg 46%
04:00 +23°C° 0 mm 2 mps 743 mmHg 51%
05:00 +23°C° 0 mm 2 mps 743 mmHg 55%
06:00 +25°C° 0 mm 2 mps 743 mmHg 53%
07:00 +28°C° 0 mm 3 mps 743 mmHg 50%
08:00 +30°C° 0 mm 3 mps 743 mmHg 47%
09:00 +31°C° 0 mm 3 mps 743 mmHg 44%
10:00 +34°C° 0 mm 3 mps 743 mmHg 41%
11:00 +36°C° 0 mm 3 mps 743 mmHg 38%
12:00 +36°C° 0 mm 3 mps 743 mmHg 35%
13:00 +37°C° 0 mm 3 mps 743 mmHg 32%
14:00 +38°C° 0 mm 3 mps 743 mmHg 30%
15:00 +37°C° 0 mm 3 mps 743 mmHg 33%
16:00 +37°C° 0 mm 2 mps 743 mmHg 35%
17:00 +37°C° 0 mm 2 mps 743 mmHg 38%
18:00 +34°C° 0 mm 2 mps 743 mmHg 42%
19:00 +31°C° 0 mm 2 mps 743 mmHg 46%
20:00 +29°C° 0 mm 2 mps 743 mmHg 49%
21:00 +28°C° 0.2 mm 2 mps 743 mmHg 50%
22:00 +28°C° 0.2 mm 2 mps 743 mmHg 52%
23:00 +27°C° 0.2 mm 2 mps 743 mmHg 53%

8 July, Wednesday

Time Temperature Precipitation Wind Pressure Humidity
00:00 +26°C° 0.3 mm 3 mps 743 mmHg 56%
01:00 +26°C° 0.3 mm 3 mps 743 mmHg 60%
02:00 +25°C° 0.3 mm 3 mps 743 mmHg 63%
03:00 +25°C° 0.2 mm 3 mps 743 mmHg 64%
04:00 +24°C° 0.2 mm 3 mps 743 mmHg 65%
05:00 +24°C° 0.2 mm 2 mps 743 mmHg 66%
06:00 +26°C° 0.2 mm 2 mps 743 mmHg 61%
07:00 +28°C° 0.2 mm 2 mps 743 mmHg 55%
08:00 +29°C° 0.2 mm 2 mps 743 mmHg 50%
09:00 +31°C° 0 mm 2 mps 743 mmHg 47%
10:00 +34°C° 0 mm 2 mps 743 mmHg 43%
11:00 +35°C° 0 mm 3 mps 743 mmHg 40%
12:00 +35°C° 0 mm 3 mps 743 mmHg 40%
13:00 +36°C° 0 mm 3 mps 743 mmHg 41%
14:00 +36°C° 0 mm 3 mps 743 mmHg 41%
15:00 +35°C° 0 mm 3 mps 743 mmHg 43%
16:00 +35°C° 0 mm 2 mps 743 mmHg 46%
17:00 +34°C° 0 mm 2 mps 743 mmHg 49%
18:00 +31°C° 0 mm 2 mps 743 mmHg 52%
19:00 +29°C° 0 mm 2 mps 743 mmHg 56%
20:00 +28°C° 0 mm 2 mps 743 mmHg 60%
21:00 +27°C° 0.1 mm 2 mps 743 mmHg 63%
22:00 +26°C° 0.1 mm 1 mps 743 mmHg 67%
23:00 +25°C° 0.1 mm 1 mps 743 mmHg 70%

9 July, Thursday

Time Temperature Precipitation Wind Pressure Humidity
00:00 +25°C° 0.1 mm 1 mps 743 mmHg 72%
01:00 +24°C° 0.1 mm 1 mps 743 mmHg 73%
02:00 +24°C° 0.1 mm 1 mps 743 mmHg 75%
03:00 +24°C° 0.1 mm 1 mps 743 mmHg 75%
04:00 +24°C° 0.1 mm 1 mps 743 mmHg 76%
05:00 +25°C° 0.1 mm 1 mps 743 mmHg 76%
06:00 +26°C° 0 mm 1 mps 743 mmHg 70%
07:00 +28°C° 0 mm 1 mps 743 mmHg 65%
08:00 +29°C° 0 mm 2 mps 743 mmHg 59%
09:00 +30°C° 0 mm 2 mps 743 mmHg 56%
10:00 +31°C° 0 mm 2 mps 744 mmHg 53%
11:00 +34°C° 0 mm 2 mps 744 mmHg 49%
12:00 +34°C° 0.3 mm 3 mps 744 mmHg 50%
13:00 +34°C° 0.3 mm 4 mps 743 mmHg 50%
14:00 +34°C° 0.3 mm 5 mps 743 mmHg 50%
15:00 +32°C° 1.3 mm 5 mps 743 mmHg 58%
16:00 +30°C° 1.3 mm 6 mps 744 mmHg 65%
17:00 +28°C° 1.3 mm 7 mps 744 mmHg 73%
18:00 +27°C° 1.3 mm 6 mps 744 mmHg 76%
19:00 +26°C° 1.3 mm 6 mps 745 mmHg 80%
20:00 +23°C° 1.3 mm 6 mps 745 mmHg 84%
21:00 +23°C° 0.1 mm 6 mps 745 mmHg 84%
22:00 +22°C° 0.1 mm 6 mps 745 mmHg 84%
23:00 +21°C° 0.1 mm 6 mps 746 mmHg 84%

10 July, Friday

Time Temperature Precipitation Wind Pressure Humidity
00:00 +20°C° 0 mm 6 mps 746 mmHg 83%
01:00 +20°C° 0 mm 6 mps 746 mmHg 82%
02:00 +19°C° 0 mm 6 mps 746 mmHg 82%
03:00 +19°C° 0 mm 6 mps 747 mmHg 81%
04:00 +19°C° 0 mm 6 mps 747 mmHg 81%
05:00 +17°C° 0 mm 6 mps 747 mmHg 81%
06:00 +20°C° 0 mm 6 mps 748 mmHg 75%
07:00 +21°C° 0 mm 6 mps 748 mmHg 69%
08:00 +22°C° 0 mm 7 mps 748 mmHg 63%
09:00 +23°C° 0 mm 7 mps 748 mmHg 59%
10:00 +26°C° 0 mm 7 mps 749 mmHg 54%
11:00 +27°C° 0 mm 7 mps 749 mmHg 49%
12:00 +27°C° 0 mm 7 mps 749 mmHg 48%
13:00 +28°C° 0 mm 7 mps 749 mmHg 47%
14:00 +28°C° 0 mm 6 mps 749 mmHg 46%
15:00 +27°C° 0 mm 6 mps 749 mmHg 47%
16:00 +27°C° 0 mm 6 mps 749 mmHg 47%
17:00 +26°C° 0 mm 6 mps 749 mmHg 48%
18:00 +23°C° 0 mm 5 mps 750 mmHg 53%
19:00 +21°C° 0 mm 4 mps 750 mmHg 58%
20:00 +20°C° 0 mm 4 mps 751 mmHg 63%
21:00 +19°C° 0 mm 4 mps 751 mmHg 67%
22:00 +18°C° 0 mm 4 mps 751 mmHg 71%
23:00 +17°C° 0 mm 3 mps 751 mmHg 74%
Show more